Vorticity
nan nan nan nan nan nan nan nan nan nan nan nan nan nan nan nan nan nan nan nan nan nan nan nan nan nan nan nan nan nan nan nan nan nan nan nan nan nan nan nan nan nan nan nan nan nan nan
nan 5 4 4 4 5 7 6 6 6 6 7 6 8 8 7 7 7 7 18 19 9 7 6 6 7 8 4 10 6 8 11 15 8 6 1 7 8 11 12 3 5 9 8 8 7 nan
nan 6 5 6 4 6 8 7 6 6 6 6 7 8 7 8 8 7 7 15 22 12 8 6 5 5 8 11 2 8 9 8 15 16 9 4 7 9 6 13 8 4 9 12 18 12 nan
nan 7 7 5 8 8 6 5 7 8 7 7 7 9 8 7 9 10 8 6 21 21 9 7 4 3 6 12 8 9 10 9 12 12 11 12 6 8 6 7 10 9 10 9 13 17 nan
nan 7 7 9 7 7 6 8 10 8 8 8 8 8 10 8 10 11 9 10 20 25 10 4 4 6 9 7 14 10 9 9 8 10 15 9 4 9 11 6 8 5 10 9 1 11 nan
nan 8 7 6 7 8 8 9 9 9 10 9 8 10 11 10 8 10 12 17 29 23 3 1 8 13 15 9 12 11 11 10 8 5 6 7 5 4 5 5 3 10 8 1 7 8 nan
nan 8 10 7 9 8 8 9 9 11 8 9 11 10 11 9 8 11 13 19 20 9 9 8 7 9 13 10 12 11 11 8 6 3 5 8 6 5 5 2 -1 4 6 7 7 2 nan
nan 8 8 7 9 10 10 12 10 9 11 10 9 12 10 9 10 12 13 7 3 12 12 12 8 7 8 5 8 14 6 5 7 5 1 6 12 8 4 11 13 6 5 7 4 4 nan
nan 7 8 10 8 11 10 10 11 10 11 9 11 13 11 8 12 18 14 6 1 16 18 18 5 1 6 8 10 13 4 7 9 6 3 -3 6 16 14 8 8 6 7 8 6 8 nan
nan 9 6 10 11 10 10 11 10 10 11 10 11 9 6 11 20 17 13 12 15 10 14 17 10 9 9 7 17 14 6 5 12 13 8 7 5 8 12 8 7 7 12 10 10 11 nan
nan 10 10 9 9 10 11 11 11 10 11 10 9 10 8 13 11 7 12 13 16 8 18 11 8 16 12 3 11 13 7 4 11 8 5 6 15 10 8 10 7 12 9 9 7 6 nan
nan 10 12 11 10 11 12 11 10 10 10 8 9 13 24 27 13 7 4 10 11 8 13 7 12 15 10 4 3 13 7 -0 12 16 4 3 6 13 10 10 7 6 10 11 11 13 nan
nan 8 11 11 10 11 12 10 9 11 9 8 10 16 36 26 16 18 3 8 5 16 14 6 14 15 8 8 6 9 8 6 2 7 13 14 7 5 11 7 12 3 5 12 13 8 nan
nan 10 11 10 11 11 11 10 10 10 9 8 10 31 33 10 11 10 5 9 10 14 11 14 18 8 10 8 8 11 5 7 4 2 9 14 18 14 10 7 7 13 3 2 3 -1 nan
nan 10 9 10 12 10 10 9 11 11 8 9 22 26 16 18 13 3 6 4 15 14 11 16 5 2 16 9 6 12 9 8 13 5 1 8 6 17 12 11 6 8 9 5 7 10 nan
nan 9 9 10 11 9 10 10 11 10 9 15 27 14 15 18 8 4 12 6 5 17 18 1 1 11 13 11 5 10 10 10 11 10 -1 4 14 14 9 8 13 2 5 15 12 13 nan
nan 10 10 10 11 10 9 11 10 9 11 29 26 12 13 7 4 6 11 9 15 15 2 5 13 12 14 10 9 13 3 11 16 12 9 1 8 7 8 13 10 4 3 -2 8 11 nan
nan 11 11 11 10 10 9 10 10 9 22 33 14 15 11 2 3 11 10 14 17 3 0 14 11 14 17 8 8 9 3 9 18 13 11 7 6 8 8 12 11 9 8 0 1 5 nan
nan 10 11 10 9 10 9 8 9 10 28 26 11 12 5 8 9 11 9 15 11 3 12 15 11 13 16 12 6 11 7 11 17 10 12 7 3 7 13 15 14 10 7 9 3 7 nan
nan 10 10 10 11 9 8 8 9 11 24 27 10 8 10 11 12 13 8 9 8 8 12 13 13 13 12 3 8 15 8 10 13 4 7 11 9 3 -2 -1 12 12 7 7 7 5 nan
nan 9 10 11 10 9 9 9 9 11 23 27 11 10 12 13 12 8 10 12 9 6 5 7 10 10 8 8 9 10 10 8 10 12 3 7 8 11 5 0 4 7 6 12 12 7 nan
nan 11 11 10 9 9 9 10 9 12 27 23 8 9 12 15 11 2 6 10 7 7 9 14 12 6 8 10 11 14 9 6 12 13 5 5 6 11 15 18 9 11 19 20 17 14 nan
nan 11 11 9 9 9 9 9 9 14 26 16 10 10 12 15 9 6 11 7 8 4 6 13 11 7 8 9 10 9 8 9 10 12 10 5 7 9 8 7 22 25 17 12 12 14 nan
nan 9 10 9 10 9 10 9 9 11 21 19 10 9 12 14 12 9 8 9 9 9 9 9 9 9 10 9 10 9 11 11 9 6 7 8 8 5 5 13 16 7 9 14 13 11 nan
nan 9 9 9 9 10 9 7 8 8 18 23 14 10 11 11 13 13 7 8 9 9 8 8 8 9 9 10 10 10 13 14 19 18 11 4 1 7 10 11 12 9 10 15 14 13 nan
nan 8 8 9 10 9 7 8 8 8 17 22 14 11 10 12 16 12 11 6 5 6 8 9 8 8 10 11 11 10 7 13 15 13 17 19 9 3 5 10 12 8 13 15 8 6 nan
nan 8 8 8 9 9 8 8 8 9 16 23 11 12 13 8 16 17 10 7 8 8 8 12 10 9 11 12 8 10 8 10 11 11 12 11 16 13 7 7 6 8 12 10 5 2 nan
nan 8 8 8 8 9 10 9 9 8 14 20 15 8 9 12 11 12 13 13 9 9 8 10 9 10 11 10 9 11 11 9 10 13 13 9 5 11 10 8 10 11 7 3 7 7 nan
nan nan nan nan nan nan nan nan nan nan nan nan nan nan nan nan nan nan nan nan nan nan nan nan nan nan nan nan nan nan nan nan nan nan nan nan nan nan nan nan nan nan nan nan nan nan nan
CAPE
10 10 16 15 24 25 30 30 28 29 17 12 11 14 13 21 8 13 26 89 49 10 4 0 0 0 0 8 2 0 0 0 0 75 58 14 17 9 2 0 0 0 0 0 0 0 0
11 18 20 24 24 30 22 28 27 26 27 26 18 12 21 39 24 9 8 37 105 33 8 0 0 0 0 0 0 0 0 0 4 40 39 25 25 18 22 10 0 1 0 0 0 0 0
26 25 50 41 32 27 45 43 29 28 19 19 23 27 14 37 36 26 4 25 113 60 28 4 0 0 3 0 0 0 0 0 12 13 52 23 9 0 19 8 7 1 1 0 0 0 0
45 59 48 50 45 80 66 63 67 66 70 42 37 31 40 33 47 40 14 17 55 95 42 2 0 1 0 0 0 0 0 0 0 61 52 50 17 22 23 14 2 0 1 0 0 0 0
34 42 44 57 71 78 90 63 64 98 110 97 59 46 42 61 59 53 22 22 12 105 66 34 20 7 5 0 0 0 0 10 8 7 46 43 33 31 38 24 5 6 0 0 0 0 0
31 29 49 72 79 91 72 80 79 94 87 91 86 86 70 76 79 59 43 19 15 92 62 60 21 4 0 0 0 0 0 18 12 13 32 23 16 3 1 19 5 3 2 0 0 0 0
52 70 68 75 76 80 83 102 105 122 124 104 114 105 138 123 123 66 56 13 136 47 55 22 0 0 0 0 0 0 0 16 13 14 4 1 4 1 0 12 6 0 0 0 0 0 0
64 66 49 71 72 86 103 120 146 164 138 107 105 92 150 175 151 91 78 10 20 21 4 0 0 3 0 0 1 0 0 7 2 5 4 7 10 0 1 0 0 0 0 0 0 0 0
47 48 61 77 75 85 106 144 167 179 143 123 71 31 87 156 143 73 73 0 4 1 21 15 5 2 0 0 6 2 1 7 9 8 0 10 0 0 0 0 0 0 0 0 0 0 0
44 63 63 79 101 132 143 153 160 149 111 58 32 58 112 89 79 55 72 54 29 0 7 6 11 2 2 1 3 8 0 4 8 1 4 8 1 0 0 0 0 1 0 0 0 1 0
44 57 72 88 111 127 149 148 145 128 58 64 67 90 62 63 57 66 63 48 19 4 23 8 13 9 10 0 2 10 3 12 5 9 0 0 0 6 3 0 2 1 2 0 2 6 0
40 64 87 101 106 128 139 140 131 102 51 65 69 91 116 78 87 50 74 47 28 3 24 11 12 11 6 13 10 18 16 17 9 7 7 5 1 5 7 1 3 2 1 1 4 8 7
42 74 75 95 105 120 125 130 89 56 67 64 87 25 213 58 42 72 77 9 7 21 0 23 16 19 10 3 12 24 17 17 8 24 13 8 3 1 2 5 6 10 14 2 4 18 0
56 74 73 89 104 110 126 110 81 65 48 65 48 36 171 81 73 140 28 4 44 8 5 3 26 27 18 4 13 5 6 22 11 4 2 2 5 3 0 4 4 1 12 0 0 0 0
57 62 72 93 99 116 120 102 46 30 79 84 58 65 157 157 111 31 31 24 69 5 4 11 33 27 19 13 7 18 19 14 12 7 1 4 0 0 8 5 3 8 13 1 15 7 5
49 65 75 86 86 85 76 64 18 12 82 45 27 35 90 93 74 45 42 1 24 5 0 14 6 2 11 16 13 6 11 4 0 3 5 3 4 0 8 7 1 5 4 4 16 6 1
54 65 74 79 76 67 60 37 24 30 42 27 6 52 117 55 35 8 20 54 37 7 3 8 3 2 1 8 6 3 1 0 1 1 7 0 2 1 2 4 1 3 13 14 8 15 9
49 57 72 74 62 59 49 37 27 32 46 42 22 9 78 45 53 21 53 26 10 9 0 3 7 3 3 5 8 7 0 0 0 0 2 2 0 7 0 0 0 5 0 5 29 0 3
39 52 62 64 48 45 44 29 22 14 32 30 33 24 87 56 121 73 18 22 16 8 3 3 5 1 0 6 1 7 1 0 0 0 4 2 8 3 1 0 0 1 0 0 12 17 12
44 53 55 46 59 61 36 21 7 2 7 130 52 18 16 21 25 41 28 27 19 17 5 0 0 0 0 2 0 3 0 0 0 0 0 8 6 0 0 14 5 2 3 5 4 17 5
39 41 62 46 45 38 33 20 7 9 0 57 114 18 8 33 73 29 25 13 16 14 1 1 0 1 0 1 5 2 2 1 0 0 0 6 22 6 8 4 2 4 4 1 3 3 3
48 45 37 29 31 30 30 27 4 23 0 8 11 32 20 16 9 26 3 3 17 5 7 8 7 0 0 3 3 1 0 3 2 3 6 9 24 24 10 0 0 8 0 4 9 6 6
29 35 29 20 48 30 20 30 5 29 13 16 9 7 32 10 25 17 0 4 14 6 3 0 2 2 4 4 0 1 1 3 3 2 7 14 21 20 1 0 0 8 2 4 8 11 13
15 19 31 22 29 24 25 15 4 28 34 22 17 8 18 20 24 7 3 1 0 0 5 3 0 4 13 1 1 2 0 0 1 1 0 6 20 28 4 0 2 2 0 0 1 3 9
11 9 10 25 20 38 32 10 2 15 26 18 14 6 25 16 13 2 7 9 1 0 6 10 11 4 11 11 21 7 11 5 0 6 23 4 11 16 15 3 0 0 0 0 4 2 1
12 9 7 13 14 21 12 4 5 9 14 4 4 8 12 30 16 12 8 8 17 12 7 9 9 7 4 17 13 27 9 0 6 6 2 11 24 19 10 11 2 0 0 0 2 3 0
16 11 7 6 8 4 7 4 5 8 8 3 5 7 8 40 18 5 5 11 6 9 8 13 10 10 11 19 28 16 5 1 2 6 4 19 17 12 17 15 1 0 0 0 3 0 0
19 14 10 7 9 8 11 7 13 10 6 5 1 3 6 7 23 4 16 18 13 10 13 9 3 4 12 11 36 17 27 17 4 7 3 1 4 9 9 25 1 0 0 0 0 0 0
19 18 11 11 13 14 17 15 16 10 9 8 6 0 3 7 30 12 8 1 8 19 29 7 26 1 13 7 20 23 38 5 9 5 0 3 2 4 4 0 5 0 0 0 0 0 0